EW4696 Weather Reports


Display with metric or nautical units.
time (UTC)temp
F
wind
direction
speed
MPH
gust
MPH
rain 1hr
in
rain 24hr
in
rain mn
in
humidity
%
barometer
mb
20260507115503 58 0 0.0 5.0 0.00 0.04 0.00 90 1017.6
20260507115003 58 84 1.0 5.0 0.00 0.04 0.00 90 1017.7
20260507114504 58 84 1.0 3.0 0.00 0.04 0.00 90 1017.4
20260507114004 58 84 1.0 5.0 0.00 0.04 0.00 90 1017.7
20260507113503 58 84 1.0 6.0 0.00 0.04 0.00 90 1017.4
20260507113004 58 84 1.0 6.0 0.00 0.04 0.00 90 1017.4
20260507112503 58 0 0.0 6.0 0.00 0.04 0.00 90 1017.5
20260507112003 58 0 0.0 6.0 0.00 0.04 0.00 90 1017.6
20260507111504 58 139 1.0 5.0 0.00 0.04 0.00 90 1017.6
20260507111004 58 134 1.0 5.0 0.00 0.04 0.00 90 1017.7
20260507110503 58 0 0.0 3.0 0.00 0.04 0.00 90 1017.5
20260507110004 58 0 0.0 3.0 0.00 0.04 0.00 90 1017.7
20260507105504 58 146 1.0 3.0 0.00 0.04 0.00 90 1017.6
20260507105003 58 153 1.0 4.0 0.00 0.04 0.00 90 1017.6
20260507104004 58 148 1.0 5.0 0.00 0.04 0.00 90 1017.7
20260507103504 58 105 1.0 5.0 0.00 0.04 0.00 90 1017.5
20260507102503 58 41 1.0 6.0 0.00 0.05 0.00 89 1016.9
20260507102006 58 49 1.0 4.0 0.00 0.05 0.00 89 1017.3
20260507101504 58 0 0.0 3.0 0.00 0.05 0.00 89 1017.0
20260507101003 58 0 0.0 2.0 0.00 0.05 0.00 89 1017.0
20260507100503 58 0 0.0 7.0 0.00 0.05 0.00 89 1016.9
20260507100004 58 0 0.0 7.0 0.00 0.05 0.00 89 1017.0
20260507095503 58 0 0.0 3.0 0.00 0.05 0.00 89 1017.1
20260507095003 58 0 0.0 4.0 0.00 0.05 0.00 89 1017.3
20260507094503 58 0 0.0 4.0 0.00 0.05 0.00 89 1017.5
20260507094004 58 0 0.0 3.0 0.00 0.05 0.00 89 1017.3
20260507093503 58 0 0.0 3.0 0.00 0.05 0.00 89 1017.2
20260507093003 58 0 0.0 3.0 0.00 0.05 0.00 89 1017.0
20260507092504 58 0 0.0 4.0 0.00 0.05 0.00 89 1017.1
20260507092003 58 0 0.0 4.0 0.00 0.05 0.00 89 1017.0
20260507091503 58 0 0.0 3.0 0.00 0.05 0.00 89 1017.2
20260507091003 58 61 1.0 3.0 0.00 0.05 0.00 89 1017.0
20260507090504 58 60 1.0 4.0 0.00 0.05 0.00 89 1016.8
20260507090004 58 0 0.0 4.0 0.00 0.05 0.00 89 1016.6
20260507085004 58 60 1.0 4.0 0.00 0.05 0.00 89 1016.2
20260507084503 58 59 1.0 4.0 0.00 0.05 0.00 89 1016.3
20260507084003 58 59 1.0 4.0 0.00 0.05 0.00 89 1016.2
20260507083503 59 0 0.0 4.0 0.00 0.05 0.00 89 1016.4
20260507083004 59 58 1.0 5.0 0.00 0.05 0.00 89 1016.2
20260507082503 59 58 1.0 5.0 0.00 0.05 0.00 89 1016.2
20260507082003 59 0 0.0 3.0 0.00 0.05 0.00 89 1016.3
20260507081503 59 0 0.0 3.0 0.00 0.05 0.00 89 1016.3
20260507081004 59 0 0.0 3.0 0.00 0.05 0.00 88 1016.2
20260507080503 59 0 0.0 2.0 0.00 0.05 0.00 88 1016.3
20260507075503 59 0 0.0 4.0 0.00 0.05 0.00 88 1015.6
20260507075004 59 0 0.0 4.0 0.00 0.05 0.00 88 1015.7
20260507074503 59 0 0.0 3.0 0.00 0.05 0.00 88 1015.9
20260507073503 59 0 0.0 4.0 0.00 0.05 0.00 88 1016.0
20260507072504 59 53 1.0 4.0 0.00 0.05 0.00 88 1015.8
20260507071003 59 73 1.0 7.0 0.00 0.05 0.00 87 1015.8
20260507070008 59 65 2.0 7.0 0.00 0.05 0.00 87 1016.0
20260507065503 60 63 1.0 7.0 0.00 0.05 0.00 87 1015.8
20260507065004 60 63 1.0 3.0 0.00 0.05 0.00 87 1015.8
20260507064504 60 63 1.0 5.0 0.00 0.05 0.00 87 1015.7
20260507064003 60 59 1.0 5.0 0.00 0.05 0.00 87 1015.8
20260507063503 60 54 1.0 5.0 0.00 0.05 0.00 86 1015.3
20260507063032 60 50 1.0 5.0 0.00 0.05 0.00 86 1015.5
20260507062504 60 51 1.0 4.0 0.00 0.05 0.00 86 1016.0
20260507061503 60 53 1.0 4.0 0.00 0.05 0.00 86 1015.8
20260507060004 60 52 1.0 4.0 0.00 0.05 0.00 86 1016.2
20260507054503 60 58 1.0 6.0 0.00 0.05 0.00 86 1015.7
20260507054004 60 69 1.0 6.0 0.00 0.05 0.00 86 1015.7
20260507053503 60 71 1.0 4.0 0.00 0.05 0.00 86 1015.6
20260507052503 60 70 1.0 5.0 0.00 0.05 0.00 86 1015.7
20260507051503 61 66 1.0 6.0 0.00 0.05 0.00 86 1015.6
20260507051003 61 68 2.0 6.0 0.00 0.05 0.00 85 1015.6
20260507050004 61 73 1.0 8.0 0.00 0.05 0.00 85 1015.8
20260507045503 61 50 1.0 8.0 0.00 0.05 0.05 85 1015.8
20260507045004 61 35 1.0 5.0 0.00 0.05 0.05 85 1015.4
20260507044503 61 35 1.0 5.0 0.00 0.05 0.05 85 1015.6
20260507044003 61 50 1.0 7.0 0.00 0.05 0.05 85 1015.9
20260507043504 61 60 2.0 7.0 0.00 0.05 0.05 85 1015.8
20260507042504 61 57 1.0 7.0 0.00 0.05 0.05 86 1015.9
20260507042004 61 68 1.0 7.0 0.00 0.05 0.05 86 1015.7
20260507041505 61 74 2.0 7.0 0.00 0.05 0.05 86 1015.8
20260507040504 61 0 0.0 10.0 0.00 0.05 0.05 86 1015.8
20260507040004 61 0 0.0 2.0 0.00 0.05 0.05 87 1015.9
20260507035505 61 0 0.0 2.0 0.00 0.05 0.05 87 1015.7
20260507035004 61 84 1.0 5.0 0.00 0.05 0.05 87 1015.8
20260507034505 61 85 1.0 5.0 0.00 0.05 0.05 87 1015.7
20260507034004 61 0 0.0 3.0 0.00 0.05 0.05 87 1015.7
20260507033505 61 0 0.0 2.0 0.00 0.05 0.05 87 1015.8
20260507032504 61 0 0.0 5.0 0.00 0.05 0.05 87 1015.3
20260507032004 61 0 0.0 5.0 0.00 0.05 0.05 87 1015.6
20260507031505 61 0 0.0 3.0 0.00 0.05 0.05 87 1015.6
20260507030504 61 0 0.0 3.0 0.00 0.05 0.05 87 1015.4
20260507030004 61 0 0.0 2.0 0.00 0.05 0.05 87 1015.1
20260507025505 61 0 0.0 2.0 0.00 0.05 0.05 87 1015.2
20260507025004 61 0 0.0 2.0 0.00 0.05 0.05 87 1015.3
20260507024504 61 0 0.0 2.0 0.00 0.05 0.05 87 1015.4
20260507024005 61 0 0.0 5.0 0.00 0.05 0.05 87 1015.2
20260507023504 61 88 1.0 5.0 0.00 0.05 0.05 86 1015.2
20260507022504 61 0 0.0 5.0 0.00 0.05 0.05 86 1015.1
20260507022005 61 0 0.0 5.0 0.00 0.05 0.05 86 1014.8
20260507021504 62 0 0.0 3.0 0.00 0.05 0.05 86 1014.7
20260507021004 62 0 0.0 3.0 0.00 0.05 0.05 86 1014.6
20260507020505 62 0 0.0 3.0 0.00 0.05 0.05 86 1014.7
20260507015504 62 0 0.0 2.0 0.00 0.05 0.05 86 1014.5
20260507015005 62 0 0.0 3.0 0.00 0.05 0.05 86 1014.4
20260507014504 62 0 0.0 3.0 0.00 0.05 0.05 86 1014.3
20260507014004 62 0 0.0 1.0 0.00 0.05 0.05 86 1014.3
20260507013005 62 0 0.0 5.0 0.00 0.05 0.05 86 1013.9
20260507012504 62 0 0.0 5.0 0.00 0.05 0.05 86 1013.6
20260507012004 62 0 0.0 2.0 0.00 0.05 0.05 85 1013.7
20260507011004 62 0 0.0 2.0 0.00 0.05 0.05 85 1013.6
20260507010504 62 0 0.0 2.0 0.00 0.05 0.05 85 1013.8
20260507010004 62 0 0.0 2.0 0.00 0.05 0.05 85 1013.6
20260507005504 62 0 0.0 2.0 0.00 0.05 0.05 85 1013.5
20260507005004 62 0 0.0 1.0 0.00 0.05 0.05 85 1013.5
20260507004004 62 0 0.0 5.0 0.00 0.05 0.05 85 1013.3
20260507003504 62 0 0.0 3.0 0.00 0.05 0.05 85 1013.4
20260507002504 62 0 0.0 2.0 0.00 0.05 0.05 84 1013.0
20260507002004 62 0 0.0 2.0 0.00 0.05 0.05 85 1013.2
20260507001504 62 0 0.0 3.0 0.00 0.05 0.05 84 1013.3
20260507001004 62 0 0.0 3.0 0.00 0.05 0.05 84 1013.1
20260507000005 62 0 0.0 2.0 0.00 0.05 0.05 84 1013.2
20260506235504 63 0 0.0 3.0 0.00 0.05 0.05 84 1012.9
20260506235004 63 0 0.0 3.0 0.00 0.05 0.05 84 1013.2
20260506234504 63 0 0.0 3.0 0.00 0.05 0.05 85 1013.4
20260506234005 62 0 0.0 3.0 0.00 0.05 0.05 84 1013.0
20260506233504 62 0 0.0 3.0 0.00 0.05 0.05 85 1012.8
20260506233004 62 0 0.0 3.0 0.00 0.05 0.05 85 1013.0
20260506232004 62 75 1.0 6.0 0.00 0.05 0.05 85 1012.8
20260506231004 62 0 0.0 3.0 0.00 0.05 0.05 85 1012.8
20260506230504 62 69 1.0 3.0 0.00 0.05 0.05 85 1012.8
20260506230004 62 69 1.0 4.0 0.00 0.05 0.05 84 1012.9
20260506225504 62 0 0.0 4.0 0.00 0.05 0.05 84 1013.1
20260506225004 62 0 0.0 3.0 0.00 0.05 0.05 84 1012.8
20260506224504 62 0 0.0 5.0 0.00 0.05 0.05 85 1013.0
20260506222505 62 73 1.0 7.0 0.00 0.05 0.05 84 1012.7
20260506222004 62 73 1.0 3.0 0.00 0.05 0.05 84 1012.8
20260506221504 62 72 1.0 3.0 0.00 0.05 0.05 84 1012.8
20260506220505 63 72 1.0 3.0 0.00 0.05 0.05 83 1013.0
20260506215504 63 71 1.0 5.0 0.00 0.05 0.05 82 1012.7
20260506215004 63 70 1.0 4.0 0.00 0.05 0.05 83 1012.6
20260506214504 63 70 1.0 4.0 0.00 0.05 0.05 82 1012.6
20260506214004 64 72 1.0 3.0 0.00 0.05 0.05 81 1012.6
20260506213504 64 67 1.0 7.0 0.00 0.05 0.05 83 1012.5
20260506213005 64 60 1.0 7.0 0.00 0.05 0.05 83 1012.6
20260506212504 63 62 1.0 3.0 0.00 0.05 0.05 82 1012.7
20260506212004 64 60 1.0 3.0 0.00 0.05 0.05 82 1012.9
20260506211005 64 39 1.0 7.0 0.00 0.05 0.05 82 1012.8
20260506210504 64 53 1.0 7.0 0.00 0.05 0.05 81 1012.9
20260506210004 64 82 1.0 5.0 0.00 0.05 0.05 81 1013.2
20260506205504 64 62 1.0 6.0 0.00 0.05 0.05 81 1013.1
20260506205005 64 38 1.0 6.0 0.00 0.05 0.05 81 1013.1
20260506204504 64 15 1.0 5.0 0.00 0.05 0.05 82 1013.2
20260506203004 66 66 1.0 5.0 0.00 0.05 0.05 80 1013.0
20260506202505 66 95 1.0 6.0 0.00 0.05 0.05 80 1013.0
20260506202004 66 91 1.0 6.0 0.00 0.05 0.05 80 1013.0
20260506201004 67 87 1.0 3.0 0.00 0.05 0.05 80 1012.8
20260506200004 68 101 1.0 5.0 0.00 0.05 0.05 79 1012.8
20260506195004 69 89 1.0 5.0 0.00 0.05 0.05 79 1012.7
20260506194004 69 65 1.0 6.0 0.00 0.05 0.05 79 1012.5
20260506193504 70 27 1.0 5.0 0.00 0.05 0.05 80 1012.5
20260506193004 70 12 1.0 5.0 0.00 0.05 0.05 80 1012.6
20260506192504 70 50 1.0 5.0 0.00 0.05 0.05 80 1012.5
20260506192004 70 86 1.0 4.0 0.00 0.05 0.05 80 1012.6
20260506191005 72 0 0.0 3.0 0.00 0.05 0.05 78 1012.6
20260506190504 73 0 0.0 3.0 0.00 0.05 0.05 79 1012.8
20260506185504 74 58 1.0 6.0 0.00 0.05 0.05 78 1012.6
20260506185005 74 0 0.0 4.0 0.00 0.05 0.05 80 1012.5
20260506184504 74 65 1.0 4.0 0.00 0.05 0.05 78 1012.4
20260506184004 74 64 1.0 4.0 0.00 0.05 0.05 80 1012.4
20260506183504 74 63 1.0 4.0 0.01 0.05 0.05 79 1012.5
20260506183005 74 0 0.0 6.0 0.01 0.05 0.05 80 1012.4
20260506182504 73 57 1.0 6.0 0.01 0.05 0.05 81 1012.4
20260506182004 73 55 1.0 5.0 0.01 0.05 0.05 81 1012.4
20260506181004 72 52 1.0 4.0 0.01 0.05 0.05 83 1012.6
20260506180504 72 0 0.0 3.0 0.01 0.05 0.05 83 1012.4
20260506175505 71 95 1.0 5.0 0.01 0.05 0.05 84 1012.3
20260506174504 70 104 1.0 8.0 0.01 0.05 0.05 83 1012.2
20260506174004 69 110 1.0 8.0 0.01 0.05 0.05 85 1012.1
20260506173504 69 111 2.0 6.0 0.00 0.04 0.04 86 1012.2
20260506173004 68 103 2.0 7.0 0.00 0.04 0.04 85 1012.1
20260506172004 67 67 1.0 5.0 0.00 0.04 0.04 88 1012.3
20260506171504 67 65 1.0 5.0 0.00 0.04 0.04 89 1012.3
20260506171004 66 94 1.0 5.0 0.00 0.04 0.04 89 1012.2
20260506170504 65 95 1.0 5.0 0.00 0.04 0.04 89 1012.3
20260506170004 64 90 1.0 5.0 0.00 0.04 0.04 89 1012.4
20260506165504 64 87 1.0 6.0 0.00 0.04 0.04 89 1012.4
20260506164505 64 0 0.0 4.0 0.00 0.04 0.04 89 1012.7
20260506164004 64 0 0.0 4.0 0.02 0.04 0.04 88 1012.8
20260506163004 63 72 1.0 7.0 0.03 0.04 0.04 88 1013.4
20260506162004 62 45 1.0 6.0 0.03 0.04 0.04 89 1013.1
20260506161504 62 49 1.0 5.0 0.03 0.04 0.04 89 1013.4
20260506161004 62 0 0.0 5.0 0.03 0.04 0.04 89 1013.7
20260506160504 62 0 0.0 1.0 0.03 0.04 0.04 89 1014.0
20260506155504 63 0 0.0 0.0 0.03 0.04 0.04 89 1013.8
20260506155004 63 0 0.0 0.0 0.03 0.04 0.04 89 1013.9
20260506154504 64 0 0.0 0.0 0.03 0.04 0.04 89 1013.5
20260506154004 65 0 0.0 0.0 0.01 0.02 0.02 89 1013.6
20260506153504 66 0 0.0 0.0 0.01 0.02 0.02 89 1013.8
20260506153005 66 0 0.0 0.0 0.00 0.01 0.01 89 1013.4
20260506152504 67 0 0.0 0.0 0.00 0.01 0.01 89 1013.1
20260506152004 67 0 0.0 0.0 0.00 0.01 0.01 88 1012.9
20260506151504 68 0 0.0 0.0 0.00 0.01 0.01 87 1012.5
20260506151004 69 0 0.0 0.0 0.00 0.01 0.01 87 1012.5
20260506150505 70 0 0.0 0.0 0.00 0.01 0.01 85 1012.4
20260506150004 73 0 0.0 0.0 0.00 0.01 0.01 83 1012.3
20260506145504 76 0 0.0 0.0 0.00 0.01 0.01 85 1012.0
20260506145004 77 0 0.0 0.0 0.00 0.01 0.01 88 1011.5
20260506144505 77 0 0.0 0.0 0.00 0.01 0.01 88 1011.2
20260506144028 77 0 0.0 0.0 0.00 0.01 0.01 88 1011.1
20260506142504 77 0 0.0 0.0 0.00 0.01 0.01 88 1010.7
20260506142004 77 0 0.0 0.0 0.00 0.01 0.01 88 1010.6
20260506140504 76 0 0.0 0.0 0.00 0.01 0.01 88 1010.6
20260506140006 76 0 0.0 0.0 0.00 0.01 0.01 89 1010.7
20260506135504 75 0 0.0 0.0 0.00 0.01 0.01 88 1010.9
20260506134505 75 0 0.0 0.0 0.00 0.01 0.01 88 1010.3
20260506134004 75 0 0.0 0.0 0.00 0.01 0.01 88 1010.4
20260506133504 75 0 0.0 0.0 0.00 0.01 0.01 88 1010.4
20260506133005 75 0 0.0 0.0 0.00 0.01 0.01 88 1010.3
20260506132504 74 0 0.0 0.0 0.00 0.01 0.01 88 1010.3
20260506132004 74 0 0.0 0.0 0.00 0.01 0.01 88 1010.3
20260506131505 74 0 0.0 0.0 0.00 0.01 0.01 88 1010.2
20260506131004 74 0 0.0 0.0 0.00 0.01 0.01 88 1010.1
20260506130505 74 0 0.0 0.0 0.00 0.01 0.01 88 1010.1
20260506130005 74 0 0.0 0.0 0.00 0.01 0.01 88 1010.1
20260506125504 74 0 0.0 0.0 0.00 0.01 0.01 88 1010.1
20260506124504 74 0 0.0 0.0 0.00 0.01 0.01 88 1009.9
20260506124004 74 0 0.0 0.0 0.00 0.01 0.01 88 1009.9
20260506123004 73 0 0.0 0.0 0.00 0.01 0.01 88 1009.7
20260506122505 73 0 0.0 0.0 0.00 0.01 0.01 88 1009.7
20260506122004 73 0 0.0 0.0 0.00 0.01 0.01 88 1009.7
20260506121504 73 0 0.0 0.0 0.00 0.01 0.01 88 1009.8
20260506121004 74 0 0.0 0.0 0.00 0.01 0.01 88 1009.8
20260506120504 74 0 0.0 0.0 0.00 0.01 0.01 88 1009.8
20260506120005 74 0 0.0 0.0 0.00 0.01 0.01 88 1009.8